Weather History for KSZL - November, 2012

Change the Weather History Date:

Sunday, November 11, 2012

  Actual Average Record
Temperature  
Mean Temperature 48 °F -  
Max Temperature 66 °F 53 °F 74 °F (2007)
Min Temperature 28 °F 36 °F 24 °F (2014)
Degree Days  
Heating Degree Days 18    
Moisture  
Dew Point 44 °F    
Average Humidity 91    
Maximum Humidity 100    
Minimum Humidity 73    
Precipitation  
Precipitation 1.52 in - - ()
Sea Level Pressure  
Sea Level Pressure 29.90 in    
Wind  
Wind Speed 14 mph (WNW)    
Max Wind Speed 23 mph    
Max Gust Speed 32 mph    
Visibility 8 miles    
Events Rain , Thunderstorm    
Averages and records for this station are not official NWS values.
T = Trace of Precipitation, MM = Missing Value Source: NWS Daily Summary

Daily Weather History Graph

Daily Weather History Graph

Search for Another Location

Airport or City:

Trip Planner

Search our weather history database for the weather conditions in past years. The results will help you decide how hot, cold, wet, or windy it might be!

Date:

Astronomy

Nov. 11, 2012 Rise Set
Actual Time 6:52 AM CST 5:03 PM CST
Civil Twilight 6:24 AM CST 5:31 PM CST
Nautical Twilight 5:52 AM CST 6:03 PM CST
Astronomical Twilight 5:21 AM CST 6:34 PM CST
Moon 4:08 AM CST (11/11) 3:26 PM CST (11/11)
Length of Visible Light 11h 07m
Length of Day
10h 10m
Waning Crescent, 7% of the Moon is Illuminated
Nov 11
Waning Crescent
Nov 13
New
Nov 20
First Quarter
Nov 28
Full
Dec 6
Last Quarter

Hourly Weather History & Observations

Time (CST) Temp. Windchill Dew Point Humidity Pressure Visibility Wind Dir Wind Speed Gust Speed Precip Events Conditions
12:14 AM 64.4 °F - 55.4 °F 73% 29.76 in 10.0 mi South 17.3 mph 29.9 mph N/A   Light Drizzle
12:22 AM 64.4 °F - 57.2 °F 77% 29.76 in 10.0 mi South 18.4 mph 28.8 mph N/A   Mostly Cloudy
12:55 AM 64.6 °F - 56.7 °F 75% 29.75 in 10.0 mi South 19.6 mph 27.6 mph 0.00 in Rain Light Rain
1:12 AM 64.4 °F - 57.2 °F 77% 29.76 in 10.0 mi South 17.3 mph 25.3 mph N/A   Mostly Cloudy
1:28 AM 64.4 °F - 57.2 °F 77% 29.76 in 10.0 mi South 15.0 mph 23.0 mph N/A Rain Light Rain
1:40 AM 62.6 °F - 57.2 °F 82% 29.77 in 10.0 mi South 12.7 mph - N/A   Overcast
1:55 AM 63.5 °F - 57.4 °F 80% 29.76 in 10.0 mi South 13.8 mph - 0.00 in   Overcast
2:55 AM 63.9 °F - 57.7 °F 80% 29.76 in 10.0 mi South 13.8 mph 23.0 mph 0.00 in   Overcast
2:59 AM 62.6 °F - 59.0 °F 88% 29.76 in 10.0 mi South 12.7 mph - N/A   Overcast
3:55 AM 63.7 °F - 57.6 °F 80% 29.73 in 10.0 mi South 15.0 mph 21.9 mph 0.01 in   Overcast
4:55 AM 64.0 °F - 57.2 °F 78% 29.70 in 10.0 mi South 19.6 mph 28.8 mph N/A   Mostly Cloudy
5:55 AM 64.4 °F - 57.4 °F 78% 29.68 in 10.0 mi South 17.3 mph 29.9 mph N/A   Mostly Cloudy
6:55 AM 64.9 °F - 57.7 °F 77% 29.66 in 10.0 mi South 23.0 mph 29.9 mph N/A   Mostly Cloudy
7:41 AM 66.2 °F - 59.0 °F 78% 29.72 in 8.0 mi WSW 18.4 mph 28.8 mph N/A Rain Light Rain
7:45 AM 64.4 °F - 59.0 °F 83% 29.73 in 3.0 mi WNW 11.5 mph 32.2 mph N/A Rain , Thunderstorm Heavy Rain
7:55 AM 61.2 °F - 59.9 °F 96% 29.72 in 2.0 mi WNW 12.7 mph 32.2 mph 0.15 in Rain Heavy Rain
7:56 AM 59.0 °F - 59.0 °F 100% 29.73 in 3.0 mi WNW 8.1 mph - N/A Rain Light Rain
8:07 AM 59.0 °F - 59.0 °F 100% 29.75 in 5.0 mi WNW 11.5 mph 18.4 mph N/A Rain Light Rain
8:21 AM 55.4 °F - 55.4 °F 100% 29.77 in 3.0 mi NW 21.9 mph 29.9 mph N/A Rain Heavy Rain
8:55 AM 53.8 °F - 53.8 °F 100% 29.78 in 6.0 mi WNW 12.7 mph 18.4 mph 0.18 in Rain Heavy Rain
8:56 AM 53.6 °F - 53.6 °F 100% 29.79 in 4.0 mi WNW 17.3 mph 21.9 mph N/A Rain Heavy Rain
9:43 AM 51.8 °F - 51.8 °F 100% 29.81 in 3.0 mi NW 8.1 mph - N/A Rain Rain
9:55 AM 51.4 °F - 51.4 °F 100% 29.81 in 5.0 mi WNW 8.1 mph - 0.27 in Rain Rain
10:34 AM 50.0 °F - 50.0 °F 100% 29.83 in 3.0 mi NW 11.5 mph - N/A Rain Heavy Rain
10:55 AM 49.1 °F - 49.1 °F 100% 29.84 in 10.0 mi WNW 15.0 mph - 0.20 in Rain Heavy Rain
11:18 AM 46.4 °F 41.9 °F 46.4 °F 100% 29.88 in 8.0 mi WNW 9.2 mph 18.4 mph N/A Rain Rain
11:55 AM 44.4 °F 37.9 °F 44.4 °F 100% 29.85 in 7.0 mi NW 13.8 mph - 0.16 in Rain Rain
12:22 PM 42.8 °F 37.5 °F 42.8 °F 100% 29.89 in 6.0 mi WNW 9.2 mph - N/A Rain Rain
12:55 PM 42.3 °F 38.6 °F 42.3 °F 100% 29.86 in 3.0 mi NNW 5.8 mph - 0.18 in Rain Rain
1:22 PM 39.2 °F 30.8 °F 39.2 °F 100% 29.87 in 5.0 mi NW 15.0 mph 21.9 mph N/A Rain Heavy Rain
1:55 PM 38.3 °F 30.5 °F 38.1 °F 99% 29.91 in 5.0 mi WNW 12.7 mph - 0.19 in Rain Rain
2:10 PM 37.4 °F 29.3 °F 37.4 °F 100% 29.91 in 2.5 mi NW 12.7 mph - N/A Rain Heavy Rain
2:32 PM 35.6 °F 28.6 °F 35.6 °F 100% 29.91 in 6.0 mi NNW 9.2 mph 25.3 mph N/A Rain Rain
2:55 PM 35.2 °F 27.1 °F 34.9 °F 99% 29.93 in 10.0 mi NW 11.5 mph 23.0 mph 0.18 in Rain Light Rain
2:56 PM 35.6 °F 26.6 °F 35.6 °F 100% 29.96 in 10.0 mi WNW 13.8 mph - N/A   Overcast
3:15 PM 35.6 °F 26.2 °F 33.8 °F 93% 29.95 in 10.0 mi NW 15.0 mph 20.7 mph N/A   Overcast
3:55 PM 34.3 °F 25.0 °F 34.2 °F 99% 29.99 in 10.0 mi NW 13.8 mph - 0.00 in   Overcast
3:59 PM 33.8 °F 26.4 °F 33.8 °F 100% 30.01 in 10.0 mi NW 9.2 mph - N/A   Overcast
4:21 PM 33.8 °F 24.8 °F 33.8 °F 100% 29.99 in 10.0 mi NNW 12.7 mph - N/A   Overcast
4:37 PM 33.8 °F 24.8 °F 33.8 °F 100% 30.01 in 10.0 mi WNW 12.7 mph 19.6 mph N/A   Overcast
4:55 PM 33.8 °F 25.3 °F 33.4 °F 99% 30.02 in 10.0 mi NW 11.5 mph - 0.00 in   Overcast
5:20 PM 33.8 °F 24.8 °F 33.8 °F 100% 30.04 in 10.0 mi NW 12.7 mph - N/A   Overcast
5:55 PM 33.4 °F 23.5 °F 33.1 °F 99% 30.04 in 10.0 mi NW 15.0 mph - N/A   Overcast
6:37 PM 33.8 °F 23.9 °F 32.0 °F 93% 30.10 in 10.0 mi WNW 15.0 mph - N/A   Overcast
6:45 PM 33.8 °F 25.8 °F 32.0 °F 93% 30.11 in 10.0 mi WNW 10.4 mph 19.6 mph N/A   Overcast
6:55 PM 32.9 °F 23.7 °F 31.8 °F 96% 30.10 in 10.0 mi NW 12.7 mph - N/A   Overcast
6:57 PM 33.8 °F 24.8 °F 30.2 °F 87% 30.11 in 10.0 mi NW 12.7 mph - N/A   Overcast
7:16 PM 32.0 °F 22.5 °F 28.4 °F 87% 30.10 in 10.0 mi NNW 12.7 mph 19.6 mph N/A   Overcast
7:28 PM 32.0 °F 23.6 °F 28.4 °F 87% 30.12 in 10.0 mi NW 10.4 mph - N/A   Overcast
7:55 PM 32.4 °F 25.3 °F 28.9 °F 87% 30.12 in 10.0 mi NW 8.1 mph - N/A   Overcast
8:55 PM 30.9 °F 25.2 °F 28.9 °F 92% 30.18 in 10.0 mi West 5.8 mph - N/A   Clear
9:55 PM 30.7 °F 22.0 °F 25.7 °F 82% 30.20 in 10.0 mi NW 10.4 mph - N/A   Clear
10:55 PM 29.8 °F 23.0 °F 23.9 °F 79% 30.22 in 10.0 mi NW 6.9 mph - N/A   Clear
11:55 PM 28.6 °F 22.4 °F 23.5 °F 81% 30.24 in 10.0 mi WNW 5.8 mph - N/A   Clear